[[{"header":{"parameterUnit":"m.s-1","parameterCategory":1,"la1":30.2991,"la2":30.254,"lo1":-89.0895,"lo2":-89.0444,"dy":0.0017,"dx":0.0017,"nx":28,"ny":28,"refTime":"2024-02-02T03:00:00:Z","depth":0,"parameterNumber":2,"parameterNumberName":"U-component_of_WINDS"},"data":[0,0,0,0,0,0,0,0,0,0,0,0,0,0,0,0,0,0,0,0,0,0,0,0,0,0,0,0,0,0,0,0,0,0,0,0,0,0,0,0,0,0,0,0,0,0,0,0,0,0,0,0,0,0,0,0,0,0,0.2024,0.2024,0,0.1956,0.1955,0.1954,0.1947,0.1948,0.1949,0.195,0.1873,0.187,0.1868,0,0,0,0,0,0,0,0,0,0,0,0,0,0.2143,0.214,0.2024,0.2024,0.2023,0.1956,0.1955,0.1954,0.1947,0.1948,0.1949,0.195,0.1874,0.1871,0.1867,0,0,0,0,0,0,0,0,0,0,0,0,0,0.2084,0.214,0.2025,0.2011,0.201,0.1956,0.1955,0.1954,0.1947,0.1948,0.1949,0.195,0.1875,0.1871,0.1867,0.182,0,0,0.1855,0.1853,0,0,0,0,0,0,0,0,0.2088,0.208,0.2014,0.2012,0.201,0.1962,0.1969,0.1909,0.1947,0.1971,0.195,0.1951,0.1901,0.1895,0.188,0.1817,0.1813,0.1854,0.1852,0.185,0.1849,0,0,0,0,0,0,0,0.2092,0.2083,0.1997,0.2013,0.2011,0.2007,0.2,0.1957,0.193,0.1969,0.1968,0.196,0.19,0.1883,0.1878,0.1812,0.1854,0.1851,0.1848,0.1847,0.1706,0.1705,0,0,0,0,0,0,0.2099,0.2086,0.1999,0.1995,0.2053,0.2004,0.1996,0.1976,0.1931,0.1925,0.196,0.196,0.189,0.1882,0.1875,0.1816,0.185,0.1846,0.1844,0.1708,0.1706,0.1705,0,0,0,0,0,0,0.2102,0.2091,0.2002,0.204,0.2029,0.2001,0.1978,0.1974,0.1957,0.1924,0.1919,0.1948,0.189,0.1881,0.1834,0.1814,0.1844,0.1841,0.1709,0.1707,0.1705,0.17,0,0,0,0,0,0,0.2105,0.2092,0.2076,0.204,0.2027,0.1964,0.1977,0.1972,0.1951,0.1952,0.1912,0.1906,0.1891,0.184,0.183,0.1809,0.1837,0.1711,0.1708,0.1706,0.1701,0.1698,0.1694,0,0,0,0,0,0.2109,0.2075,0.2075,0.2064,0.2006,0.1963,0.1955,0.194,0.195,0.1931,0.191,0.1907,0.1818,0.1836,0.1824,0.1801,0.1712,0.1709,0.1706,0.1703,0.1698,0.1695,0,0,0,0,0,0,0.2106,0.207,0.2069,0.2024,0.1997,0.1962,0.1939,0.1936,0.1904,0.1905,0.1886,0.1877,0.183,0.1811,0.1831,0.1753,0.1766,0.176,0.1767,0.1763,0.1759,0.1764,0.1834,0,0,0,0,0,0.2101,0.2072,0.2041,0.2003,0.199,0.1967,0.1947,0.1939,0.1909,0.1897,0.1872,0.1841,0.1806,0.1784,0.175,0.1699,0.1689,0.1678,0.1674,0.1671,0.1666,0.1637,0.1631,0.1695,0.1695,0.1695,0,0,0.2088,0.2065,0.2047,0.2002,0.198,0.1948,0.1957,0.1922,0.1898,0.1891,0.1846,0.1826,0.1791,0.1742,0.1719,0.1725,0.1647,0.1668,0.1666,0.1662,0.1634,0.1628,0.1622,0.1693,0.1693,0.1694,0,0,0.2049,0.2029,0.1995,0.1974,0.1941,0.1926,0.1918,0.1884,0.1872,0.1827,0.1821,0.179,0.1731,0.1706,0.1685,0.1637,0.1633,0.1627,0.1608,0.158,0.1574,0.157,0.1551,0.1545,0.1622,0.1622,0.1622,0,0.2036,0.199,0.1977,0.1944,0.1923,0.1918,0.1883,0.1862,0.1819,0.1804,0.1811,0.1737,0.1712,0.1657,0.1646,0.163,0.1618,0.163,0.1577,0.1572,0.1567,0.1549,0.1543,0.1621,0.1621,0.1622,0.1622,0,0.1975,0.1943,0.1919,0.1881,0.1858,0.1823,0.1804,0.1782,0.1775,0.1759,0.1712,0.1684,0.1643,0.163,0.1622,0.1573,0.1578,0.1581,0.1593,0.1561,0.1544,0.1537,0.1621,0.1621,0.1621,0.1621,0,0,0.193,0.1887,0.1878,0.1861,0.1825,0.1799,0.1763,0.1727,0.1707,0.1678,0.1647,0.1597,0.16,0.1577,0.1566,0.1542,0.1504,0.1548,0.1547,0.154,0.1447,0.1444,0.1436,0.1502,0.1501,0.15,0.145,0,0.1885,0.1825,0.1813,0.1759,0.1728,0.1724,0.1693,0.1666,0.165,0.162,0.1602,0.1567,0.1574,0.156,0.1536,0.1514,0.1485,0.1518,0.147,0.1469,0.1478,0.1428,0.1424,0.1378,0.1443,0.1442,0.1441,0,0.1824,0.1797,0.174,0.1709,0.1696,0.1669,0.1634,0.1606,0.1576,0.1565,0.154,0.1533,0.1494,0.1509,0.1454,0.1477,0.1457,0.1443,0.1441,0.1434,0.1452,0.1418,0.1363,0.1356,0.1431,0.1432,0.1432,0,0.1796,0.1744,0.1703,0.1689,0.1652,0.1632,0.1616,0.1587,0.1565,0.1534,0.152,0.1484,0.1464,0.1436,0.1418,0.1431,0.1364,0.1378,0.1352,0.1353,0.1337,0.1338,0.1276,0.1327,0.1327,0.1327,0.1327,0,0.1746,0.1711,0.169,0.1665,0.1626,0.1612,0.1573,0.1556,0.1531,0.1501,0.1494,0.1466,0.1445,0.1413,0.1398,0.1354,0.1345,0.1335,0.1331,0.1334,0.1335,0.132,0.1322,0.1325,0.1325,0.1326,0.1326,0,0.1706,0.1691,0.1646,0.1616,0.1607,0.158,0.1552,0.1527,0.1512,0.1474,0.1464,0.1439,0.1401,0.1382,0.1333,0.1324,0.1274,0.1273,0.1285,0.1283,0.1258,0.126,0.1183,0.1172,0.1231,0.1231,0.123,0,0.1674,0.1648,0.1616,0.1596,0.158,0.1549,0.1528,0.1513,0.1491,0.1455,0.1434,0.1396,0.1365,0.1305,0.1281,0.1244,0.1241,0.1216,0.1235,0.1239,0.1239,0.124,0.1236,0.1212,0.1212,0.1211,0.1211,0,0.1619,0.1614,0.1585,0.1553,0.1529,0.1503,0.1476,0.146,0.1442,0.1417,0.1379,0.1356,0.1308,0.127,0.1232,0.1212,0.1207,0.1206,0.1198,0.12,0.1208,0.1202,0.1274,0.1207,0.1207,0.1208,0.1208,0.1208,0.1581,0.1558,0.1532,0.1499,0.1479,0.1455,0.143,0.1413,0.1382,0.1344,0.1337,0.1297,0.1266,0.1215,0.1195,0.1162,0.1166,0.1155,0.1152,0.1149,0.1147,0.1215,0.1155,0.1155,0.1155,0.1155,0.1155,0,0.1525,0.1508,0.1479,0.1444,0.1419,0.142,0.1392,0.1369,0.1335,0.1309,0.1279,0.1236,0.1199,0.1174,0.1136,0.1115,0.1111,0.1105,0.1105,0.1101,0.1145,0.1156,0.1108,0.1108,0.1108,0.1108,0.1108,0.1108,0.1492,0.1452,0.1443,0.1393,0.1376,0.1339,0.1322,0.1299,0.1278,0.1231,0.1202,0.1186,0.1159,0.112,0.1086,0.1079,0.1065,0.1058,0.1051,0.1093,0.1098,0.1102,0.1112,0.1056,0.1056,0.1009,0.1008,0.1008]},{"header":{"parameterUnit":"m.s-1","parameterCategory":1,"la1":30.2991,"la2":30.254,"lo1":-89.0895,"lo2":-89.0444,"dy":0.0017,"dx":0.0017,"nx":28,"ny":28,"refTime":"2024-02-02T03:00:00:Z","depth":0,"parameterNumber":3,"parameterNumberName":"V-component_of_WINDS"},"data":[0,0,0,0,0,0,0,0,0,0,0,0,0,0,0,0,0,0,0,0,0,0,0,0,0,0,0,0,0,0,0,0,0,0,0,0,0,0,0,0,0,0,0,0,0,0,0,0,0,0,0,0,0,0,0,0,0,0,0.9875,0.9874,0,0.9749,0.9747,0.9746,0.9694,0.9694,0.9695,0.9695,0.9565,0.9561,0.9558,0,0,0,0,0,0,0,0,0,0,0,0,0,1.007,1.0067,0.9875,0.9874,0.9872,0.9749,0.9747,0.9746,0.9694,0.9694,0.9695,0.9695,0.9566,0.9562,0.9557,0,0,0,0,0,0,0,0,0,0,0,0,0,0.9969,1.0066,0.9875,0.9831,0.9826,0.9749,0.9747,0.9745,0.9694,0.9694,0.9695,0.9695,0.9568,0.9562,0.9557,0.9514,0,0,0.954,0.9537,0,0,0,0,0,0,0,0,0.9975,0.9962,0.9839,0.9834,0.9828,0.9738,0.9768,0.9668,0.9694,0.9744,0.9695,0.9695,0.9622,0.9612,0.9587,0.9508,0.9502,0.9539,0.9536,0.9533,0.9532,0,0,0,0,0,0,0,0.9982,0.9967,0.9825,0.9838,0.9831,0.9818,0.9804,0.9749,0.9682,0.974,0.9736,0.9722,0.9619,0.9593,0.9584,0.9501,0.9539,0.9534,0.9531,0.9529,0.9379,0.9379,0,0,0,0,0,0,0.9996,0.9973,0.9829,0.9821,0.9904,0.9814,0.9798,0.9766,0.9683,0.967,0.9721,0.972,0.9602,0.9591,0.9579,0.9523,0.9533,0.9528,0.9525,0.938,0.9379,0.9378,0,0,0,0,0,0,1.0001,0.9984,0.9834,0.9896,0.9876,0.981,0.9775,0.9764,0.9737,0.9669,0.9657,0.9707,0.9602,0.9587,0.9531,0.9518,0.9526,0.9521,0.9381,0.938,0.9379,0.9412,0,0,0,0,0,0,1.0006,0.9986,0.9969,0.9896,0.9873,0.9788,0.9774,0.9761,0.9728,0.9725,0.9652,0.964,0.9601,0.9539,0.9525,0.9511,0.9516,0.9381,0.938,0.9379,0.9411,0.9412,0.9412,0,0,0,0,0,1.0014,0.9983,0.9969,0.9952,0.9851,0.9787,0.9774,0.973,0.9727,0.971,0.9666,0.9643,0.9522,0.9534,0.9517,0.9501,0.9382,0.938,0.9379,0.9411,0.9412,0.9412,0,0,0,0,0,0,1.0056,0.9973,0.9956,0.9901,0.9852,0.9779,0.9755,0.9732,0.9682,0.9681,0.9628,0.9612,0.956,0.9525,0.954,0.9455,0.945,0.9445,0.948,0.948,0.9481,0.949,0.9512,0,0,0,0,0,1.006,1.0015,0.9945,0.9903,0.988,0.9822,0.9793,0.9763,0.971,0.9688,0.964,0.9589,0.9539,0.9508,0.9459,0.9406,0.9389,0.9387,0.9387,0.9388,0.9385,0.9354,0.9352,0.9374,0.9374,0.9374,0,0,1.0065,1.0014,0.999,0.9911,0.9869,0.9824,0.9805,0.9758,0.9724,0.9681,0.9625,0.9588,0.9527,0.9473,0.9446,0.9442,0.9375,0.9386,0.9388,0.9383,0.9352,0.935,0.9348,0.9373,0.9373,0.9373,0,0,1.0053,1.001,0.9971,0.9929,0.9867,0.9829,0.9819,0.975,0.9723,0.9666,0.9633,0.9592,0.9508,0.9466,0.9433,0.9405,0.9382,0.9391,0.9393,0.9364,0.9362,0.936,0.935,0.9347,0.9387,0.9387,0.9387,0,1.0068,0.9999,0.9953,0.9908,0.9874,0.9834,0.9793,0.9755,0.968,0.9657,0.9653,0.9546,0.9503,0.9438,0.9431,0.9406,0.9394,0.9398,0.9366,0.9364,0.9361,0.9351,0.9347,0.9389,0.9389,0.9389,0.9388,0,1.0021,0.9974,0.9949,0.9877,0.9841,0.9798,0.9745,0.9714,0.9687,0.9649,0.9591,0.9538,0.9477,0.9459,0.9433,0.939,0.9389,0.9377,0.937,0.9362,0.9351,0.9346,0.9391,0.939,0.939,0.939,0,0,1.0031,0.9935,0.9926,0.9893,0.9821,0.9783,0.9739,0.9679,0.9653,0.9602,0.9563,0.9493,0.9481,0.9444,0.9413,0.9387,0.9368,0.9378,0.9375,0.9377,0.9317,0.9326,0.9322,0.9352,0.9351,0.9351,0.9322,0,1.0009,0.9928,0.9885,0.9822,0.9777,0.9738,0.9699,0.9651,0.9614,0.9571,0.9531,0.9482,0.947,0.9447,0.942,0.9376,0.9355,0.9378,0.9315,0.9314,0.9331,0.9317,0.9327,0.9302,0.9317,0.9316,0.9316,0,0.9972,0.9922,0.9854,0.9787,0.9766,0.9732,0.9674,0.9633,0.9577,0.9553,0.9512,0.9481,0.9432,0.943,0.9362,0.9379,0.935,0.9325,0.9323,0.9315,0.9314,0.9308,0.9293,0.9289,0.9309,0.9309,0.931,0,0.9986,0.9901,0.985,0.9823,0.9743,0.972,0.9686,0.963,0.9597,0.9546,0.9524,0.9468,0.9437,0.9395,0.9349,0.9352,0.9286,0.928,0.9263,0.9264,0.925,0.9252,0.923,0.9234,0.9234,0.9234,0.9234,0,0.9965,0.9925,0.9855,0.9823,0.9777,0.9729,0.9684,0.9647,0.9598,0.9558,0.9521,0.9484,0.9427,0.9383,0.9347,0.9296,0.9282,0.9261,0.9252,0.9264,0.9266,0.9244,0.9244,0.9233,0.9233,0.9233,0.9233,0,0.9972,0.9924,0.9865,0.9795,0.9776,0.9745,0.9685,0.9652,0.9614,0.9564,0.9549,0.9489,0.9435,0.9386,0.9315,0.9291,0.9239,0.9228,0.9258,0.9253,0.9239,0.9241,0.9202,0.9194,0.9203,0.9203,0.9203,0,0.9962,0.993,0.9856,0.9827,0.9794,0.9747,0.9713,0.9664,0.963,0.9563,0.9539,0.9482,0.9435,0.9351,0.9301,0.9246,0.9232,0.9223,0.9224,0.9237,0.9232,0.9234,0.923,0.9223,0.9223,0.9223,0.9224,0,0.9949,0.9926,0.9879,0.9823,0.9783,0.9737,0.9689,0.9667,0.9609,0.9572,0.9517,0.948,0.9407,0.9352,0.9291,0.9255,0.9229,0.9224,0.9217,0.9228,0.9247,0.9236,0.9259,0.9225,0.9224,0.9224,0.9224,0.9224,0.9946,0.9916,0.9859,0.9808,0.9767,0.9723,0.9689,0.9646,0.9599,0.9536,0.951,0.9454,0.9398,0.9314,0.9279,0.9234,0.9229,0.9219,0.9216,0.9214,0.9216,0.9255,0.9223,0.9223,0.9223,0.9222,0.9222,0,0.993,0.9892,0.9845,0.9779,0.9738,0.9718,0.9664,0.9631,0.9582,0.9533,0.9486,0.9423,0.9369,0.9314,0.9257,0.9232,0.9218,0.9218,0.9219,0.9212,0.9225,0.9236,0.923,0.923,0.923,0.923,0.923,0.923,0.9917,0.9865,0.9836,0.9763,0.9725,0.9669,0.964,0.96,0.956,0.949,0.9445,0.941,0.9358,0.9297,0.9246,0.9232,0.9212,0.9215,0.9198,0.9211,0.9211,0.9211,0.9221,0.9212,0.9212,0.9188,0.9188,0.9187]}]]